CW6344 Weather Reports


time (UTC)temp
F
wind
direction
speed
knots
gust
knots
rain 1hr
in
rain 24hr
in
rain mn
in
humidity
%
barometer
mb
20260902135439 80 186 0.0 0.9 0.00 0.00 0.00 84 1018.1
20260902134439 80 284 0.0 0.0 0.00 0.00 0.00 84 1017.9
20260902133439 80 336 0.9 1.7 0.00 0.00 0.00 84 1017.8
20260902132439 80 350 0.0 0.0 0.00 0.00 0.00 86 1017.6
20260902130439 80 347 0.0 0.0 0.00 0.00 0.00 87 1017.5
20260902125439 80 347 0.0 0.9 0.00 0.00 0.00 87 1017.5
20260902124439 80 348 0.0 0.0 0.00 0.00 0.00 88 1017.4
20260902123439 80 348 0.0 0.0 0.00 0.00 0.00 88 1017.5
20260902122439 79 343 0.0 0.0 0.00 0.00 0.00 90 1017.5
20260902121439 79 343 0.0 0.0 0.00 0.00 0.00 90 1017.4
20260902120509 78 343 0.0 0.0 0.00 0.00 0.00 91 1017.4
20260902115439 78 343 0.0 0.0 0.00 0.00 0.00 92 1017.3
20260902114439 77 343 0.0 0.0 0.00 0.00 0.00 92 1017.3
20260902113439 77 343 0.0 0.0 0.00 0.00 0.00 92 1017.3
20260902112439 77 343 0.0 0.0 0.00 0.00 0.00 92 1017.2
20260902111439 76 138 0.0 0.0 0.00 0.00 0.00 92 1017.1
20260902110439 76 138 0.0 0.0 0.00 0.00 0.00 92 1017.0
20260902105439 76 292 0.0 0.0 0.00 0.00 0.00 92 1016.9
20260902104439 76 231 0.0 0.0 0.00 0.00 0.00 92 1016.8
20260902103439 76 32 0.0 0.0 0.00 0.00 0.00 92 1016.9
20260902102439 76 32 0.0 0.0 0.00 0.00 0.00 92 1016.8
20260902101439 76 32 0.0 0.0 0.00 0.00 0.00 92 1016.6
20260902100439 76 32 0.0 0.0 0.00 0.00 0.00 92 1016.6
20260902094509 76 32 0.0 0.0 0.00 0.00 0.00 91 1016.5
20260902093439 76 32 0.0 0.0 0.00 0.00 0.00 91 1016.5
20260902092439 76 32 0.0 0.0 0.00 0.00 0.00 91 1016.5
20260902090439 77 32 0.0 0.0 0.00 0.00 0.00 91 1016.6
20260902085439 77 32 0.0 0.0 0.00 0.00 0.00 90 1016.5
20260902084439 77 32 0.0 0.0 0.00 0.00 0.00 90 1016.5
20260902083439 77 32 0.0 0.0 0.00 0.00 0.00 89 1016.4
20260902082439 77 32 0.0 0.0 0.00 0.00 0.00 89 1016.3
20260902080439 78 32 0.0 0.0 0.00 0.00 0.00 88 1016.2
20260902075439 78 32 0.0 0.0 0.00 0.00 0.00 88 1016.2
20260902074439 78 32 0.0 0.0 0.00 0.00 0.00 87 1016.3
20260902073439 78 32 0.0 0.0 0.00 0.00 0.00 87 1016.2
20260902072439 78 32 0.0 0.0 0.00 0.00 0.00 87 1016.2
20260902071439 78 32 0.0 0.0 0.00 0.00 0.00 89 1016.3
20260902070439 78 360 0.0 0.0 0.00 0.00 0.00 88 1016.0
20260902064439 78 360 0.0 0.0 0.00 0.00 0.00 87 1016.0
20260902063439 78 360 0.0 0.0 0.00 0.00 0.00 87 1016.1
20260902062439 78 360 0.0 0.0 0.00 0.00 0.00 86 1016.1
20260902060509 79 360 0.0 0.0 0.00 0.00 0.00 85 1016.0
20260902055439 79 360 0.0 0.0 0.00 0.00 0.00 86 1015.9
20260902054439 79 360 0.0 0.0 0.00 0.00 0.00 86 1015.9
20260902052439 79 360 0.0 0.0 0.00 0.00 0.00 85 1015.8
20260902050440 80 360 0.0 0.0 0.00 0.00 0.00 83 1015.9
20260902044439 80 360 0.0 0.0 0.00 0.00 0.00 83 1015.8
20260902043440 80 360 0.0 0.0 0.00 0.00 0.00 84 1015.9
20260902042439 80 360 0.0 0.0 0.00 0.00 0.00 83 1015.9
20260902041439 80 360 0.0 0.0 0.00 0.00 0.00 84 1016.0
20260902040439 80 360 0.0 0.0 0.00 0.00 0.00 84 1015.9
20260902035440 80 360 0.0 0.0 0.00 0.00 0.00 83 1015.6
20260902034440 80 360 0.0 0.0 0.00 0.00 0.00 84 1015.4
20260902033440 80 360 0.0 0.0 0.00 0.00 0.00 84 1015.3
20260902032509 81 360 0.0 0.0 0.00 0.00 0.00 83 1015.3
20260902030440 81 360 0.0 0.0 0.00 0.00 0.00 83 1015.0
20260902025440 81 17 0.0 0.0 0.00 0.00 0.00 84 1015.0
20260902024440 81 17 0.0 0.0 0.00 0.00 0.00 82 1015.0
20260902023440 81 17 0.0 0.0 0.00 0.00 0.00 82 1015.1
20260902022510 81 17 0.0 0.0 0.00 0.00 0.00 84 1015.1
20260902021440 81 17 0.0 0.0 0.00 0.00 0.00 83 1015.0
20260902020440 81 17 0.0 0.0 0.00 0.00 0.00 84 1015.1
20260902015440 81 17 0.0 0.0 0.00 0.00 0.00 84 1014.9
20260902014440 82 17 0.0 0.0 0.00 0.00 0.00 84 1015.0
20260902012440 82 17 0.0 0.0 0.00 0.00 0.00 84 1014.9
20260902011440 82 17 0.0 0.0 0.00 0.00 0.00 83 1014.7
20260902010440 82 17 0.0 0.0 0.00 0.00 0.00 83 1014.7
20260902004440 83 17 0.0 0.0 0.00 0.00 0.00 81 1014.3
20260902003440 83 17 0.0 0.0 0.00 0.00 0.00 81 1013.9
20260902002540 83 17 0.0 0.0 0.00 0.00 0.00 80 1013.9
20260902000440 83 17 0.0 0.0 0.00 0.00 0.00 80 1013.9
20260901235440 83 17 0.0 0.0 0.00 0.00 0.00 79 1014.0
20260901234440 83 17 0.0 0.0 0.00 0.00 0.00 78 1014.0
20260901233440 84 17 0.0 0.0 0.00 0.00 0.00 78 1014.1
20260901232440 84 5 0.0 0.0 0.00 0.00 0.00 80 1014.1
20260901230440 84 207 0.0 0.0 0.00 0.00 0.00 78 1014.2
20260901225440 86 207 0.0 0.0 0.00 0.00 0.00 76 1014.2
20260901224440 86 207 0.0 0.0 0.00 0.00 0.00 74 1014.3
20260901223440 86 207 0.0 0.0 0.00 0.00 0.00 74 1014.5
20260901222440 87 207 0.0 0.0 0.00 0.00 0.00 76 1014.4
20260901221440 88 207 0.0 0.0 0.00 0.00 0.00 71 1014.4
20260901220440 89 207 0.0 0.0 0.00 0.00 0.00 70 1014.5
20260901214440 89 239 0.0 0.9 0.00 0.00 0.00 71 1014.7
20260901213440 90 256 0.0 0.0 0.00 0.00 0.00 70 1014.7
20260901212540 90 259 0.0 0.9 0.00 0.00 0.00 67 1014.7
20260901211440 91 224 0.0 1.7 0.00 0.00 0.00 65 1014.7
20260901210440 91 258 0.0 2.6 0.00 0.00 0.00 64 1014.7
20260901205440 91 259 0.0 1.7 0.00 0.00 0.00 66 1014.7
20260901204440 92 259 0.0 0.0 0.00 0.00 0.00 65 1014.8
20260901202440 91 242 0.0 0.9 0.00 0.00 0.00 68 1014.9
20260901201440 91 210 0.0 0.9 0.00 0.00 0.00 66 1015.0
20260901200510 89 261 0.0 0.0 0.00 0.00 0.00 70 1015.1
20260901195440 89 265 0.0 0.0 0.00 0.00 0.00 71 1015.2
20260901194440 92 265 0.0 1.7 0.00 0.00 0.00 65 1015.4
20260901192510 92 242 0.0 0.9 0.00 0.00 0.00 64 1015.4
20260901190440 91 229 0.0 2.6 0.00 0.00 0.00 68 1015.4
20260901185440 91 193 0.0 0.0 0.00 0.00 0.00 66 1015.5
20260901184440 90 240 0.0 0.9 0.00 0.00 0.00 67 1015.6
20260901183440 92 240 0.0 0.0 0.00 0.00 0.00 63 1015.6
20260901182440 92 193 1.7 1.7 0.00 0.00 0.00 68 1015.6
20260901180440 91 282 0.0 0.0 0.00 0.00 0.00 70 1015.7
20260901175440 90 282 0.0 0.0 0.00 0.00 0.00 69 1015.8
20260901174440 91 282 0.0 0.0 0.00 0.00 0.00 67 1015.8
20260901173440 91 282 0.0 0.0 0.00 0.00 0.00 66 1015.7
20260901172440 91 304 0.0 3.5 0.00 0.00 0.00 69 1015.6
20260901171440 91 246 0.0 1.7 0.00 0.00 0.00 68 1015.7
20260901170510 90 248 0.0 0.9 0.00 0.00 0.00 69 1015.8
20260901165440 90 248 0.0 2.6 0.00 0.00 0.00 68 1016.1
20260901164440 90 275 0.9 1.7 0.00 0.00 0.00 70 1016.2
20260901162440 89 281 0.0 1.7 0.00 0.00 0.00 75 1016.4
20260901161440 88 257 0.0 0.0 0.00 0.00 0.00 75 1016.6
20260901160440 89 257 0.0 0.9 0.00 0.00 0.00 73 1016.6
20260901155440 89 278 0.0 1.7 0.00 0.00 0.00 73 1016.5
20260901154440 90 279 0.0 0.9 0.00 0.00 0.00 71 1016.7
20260901152440 87 223 0.0 0.9 0.00 0.00 0.00 75 1016.7
20260901151440 87 229 0.9 2.6 0.00 0.00 0.00 74 1016.8
20260901150440 86 283 0.0 2.6 0.00 0.00 0.00 74 1016.9
20260901145440 86 232 0.0 1.7 0.00 0.00 0.00 77 1016.9
20260901144440 85 276 0.0 0.9 0.00 0.00 0.00 76 1017.1
20260901143440 86 299 0.9 1.7 0.00 0.00 0.00 77 1016.9
20260901142440 86 197 0.9 1.7 0.00 0.00 0.00 78 1016.9
20260901141440 85 290 0.0 1.7 0.00 0.00 0.00 79 1016.9
20260901140510 84 321 0.9 0.9 0.00 0.00 0.00 81 1017.0